sat.trackr.live / text

‹ back to catalog

STARLINK-34784

NORAD 65458 · 2025-195A

PAYLOAD ACTIVE UNKNOWN

§ Identity

Operator
Country
US
Launch date
2025-09-03
Launch site
AFETR
Launch vehicle
Mass (kg)
RCS (m²)

Purposes: comms

External: N2YO · Heavens-Above · Gunter

§ Orbital elements

Epoch: 2026-05-24T17:47:24.794880Z

Period
94.01 min
Inclination
53.1604°
Eccentricity
0.0001165
Mean motion
15.31724364 rev/d
Perigee alt
469.9 km
Apogee alt
471.5 km
Semi-major
6,848.8 km
B*
5.0259e-4
RAAN
264.5052°
Arg perigee
75.4958°
Mean anomaly
284.6173°
Rev number
4,164

§ Raw data

STARLINK-347841 65458U 25195A   26144.74125920  .00015275  00000+0  50259-3 0  99902 65458  53.1604 264.5052 0001165  75.4958 284.6173 15.31724364 41646

JSON: /api/v1/satellites/65458 · /tle

For live sub-satellite position, see the globe view (requires WebGL).

§ Visibility from observer

Set your observer location to see the next 7 days of passes ≥ 10°. The values pass through the URL so the page stays shareable.

No JS? Fill the form by hand. The geolocation button needs JavaScript.